Location: Lac Lasalle
(46.0398°N, 74.1576°W)
Time: 21:17:47
(UTC-05:00)

SEEDS - Pass Details

Date: 16 December 2019
Orbit: 586 x 603 km, 97.5° (Epoch: 23 January)

Event Time Altitude Azimuth Distance (km) Brightness Sun altitude
Rises 04:40:24 0° 30° (NNE) 2,857 ? -28.7°
Reaches altitude 10° 04:43:23 10° 53° (NE) 1,951 ? -28.2°
Maximum altitude 04:45:57 16° 90° (E) 1,613 ? -27.8°
Drops below altitude 10° 04:48:30 10° 128° (SE) 1,945 ? -27.4°
Sets 04:51:27 0° 150° (SSE) 2,843 ? -26.8°
